Location: Asheville, NC
(35.6000°N, 82.5500°W)
Time: 13:50:42
(UTC-04:00)

Tiangong 2 - Visible Passes

Search period start: 21 October 2017 00:00
Search period end: 31 October 2017 00:00
Orbit: 388 x 391 km, 42.8° (Epoch: 21 October)

Date Brightness Start Highest point End Pass type
(mag) Time Alt. Az. Time Alt. Az. Time Alt. Az.
21 Oct 1.3 06:15:34 52° SSW 06:15:34 52° SSW 06:18:38 10° SE visible
22 Oct 4.6 05:20:51 10° ESE 05:20:51 10° ESE 05:20:52 10° ESE visible
22 Oct 3.3 06:53:13 12° WSW 06:54:12 13° SW 06:55:49 10° S visible
23 Oct 3.7 05:58:35 13° SSE 05:58:35 13° SSE 05:59:10 10° SSE visible
27 Oct 3.4 20:13:04 10° SSW 20:14:04 15° S 20:14:04 15° S visible
28 Oct 3.5 19:16:56 10° SSE 19:17:46 11° SE 19:18:34 10° ESE visible
28 Oct 4.1 20:51:02 10° WSW 20:51:36 14° WSW 20:51:36 14° WSW visible
29 Oct 1.6 19:53:17 10° SW 19:56:18 42° SSE 19:56:40 40° SE visible
30 Oct 2.9 20:32:02 10° W 20:33:59 32° W 20:33:59 32° W visible
